�������l�o���
Date,Time,MP-1(��Sv/h),MP-2(��Sv/h),MP-3(��Sv/h),MP-4(��Sv/h),MP-5(��Sv/h),MP-6(��Sv/h),MP-7(��Sv/h),MP-8(��Sv/h),����,����(m/s),���J
2023/11/02,00:00,0.524,0.793,0.492,0.995,0.722,0.319,0.572,0.530,��,5.2,��
2023/11/02,00:10,0.526,0.795,0.493,0.997,0.720,0.317,0.573,0.530,��,5.3,��
2023/11/02,00:20,0.525,0.794,0.494,0.994,0.721,0.319,0.571,0.532,��,6.2,��
2023/11/02,00:30,0.525,0.792,0.492,0.995,0.721,0.318,0.571,0.531,��,4.9,��
2023/11/02,00:40,0.523,0.795,0.493,0.995,0.719,0.319,0.572,0.530,�쐼,2.8,��
2023/11/02,00:50,0.526,0.794,0.494,0.994,0.721,0.319,0.571,0.529,�쐼,2.9,��
2023/11/02,01:00,0.524,0.795,0.494,0.994,0.721,0.320,0.571,0.531,�쐼,2.8,��
2023/11/02,01:10,0.524,0.794,0.493,0.996,0.718,0.318,0.571,0.530,���쐼,4.1,��
2023/11/02,01:20,0.525,0.794,0.492,0.997,0.721,0.318,0.571,0.533,���쐼,7.9,��
2023/11/02,01:30,0.526,0.794,0.494,0.994,0.720,0.319,0.571,0.530,��,9.7,��
2023/11/02,01:40,0.523,0.794,0.493,0.994,0.721,0.318,0.573,0.530,���쐼,7.5,��
2023/11/02,01:50,0.525,0.794,0.493,0.996,0.721,0.319,0.570,0.531,��,6.5,��
2023/11/02,02:00,0.523,0.795,0.492,0.995,0.721,0.319,0.571,0.531,��,6.8,��
2023/11/02,02:10,0.524,0.795,0.494,0.996,0.720,0.319,0.572,0.531,���쐼,4.2,��
2023/11/02,02:20,0.522,0.794,0.494,0.995,0.721,0.318,0.572,0.532,���쐼,2.3,��
2023/11/02,02:30,0.527,0.794,0.495,0.996,0.721,0.319,0.573,0.530,��,4.1,��
2023/11/02,02:40,0.525,0.796,0.492,0.996,0.719,0.318,0.572,0.531,��,2.6,��
2023/11/02,02:50,0.525,0.795,0.493,0.996,0.721,0.320,0.571,0.532,�k��,3.0,��
2023/11/02,03:00,0.526,0.796,0.492,0.997,0.721,0.317,0.571,0.533,�k��,4.4,��
2023/11/02,03:10,0.525,0.795,0.494,0.995,0.721,0.319,0.572,0.533,�k�k��,3.2,��
2023/11/02,03:20,0.525,0.796,0.494,0.996,0.719,0.317,0.571,0.532,�k�k��,3.7,��
2023/11/02,03:30,0.524,0.793,0.493,0.995,0.722,0.318,0.572,0.531,�k,3.1,��
2023/11/02,03:40,0.523,0.794,0.493,0.997,0.720,0.319,0.571,0.532,�k,3.5,��
2023/11/02,03:50,0.523,0.794,0.492,0.997,0.721,0.318,0.570,0.532,�k�k��,4.0,��
2023/11/02,04:00,0.525,0.795,0.493,0.998,0.722,0.318,0.571,0.533,�k,5.0,�L
2023/11/02,04:10,0.526,0.795,0.493,0.998,0.722,0.317,0.572,0.533,�k,4.0,�L
2023/11/02,04:20,0.525,0.794,0.494,0.998,0.721,0.319,0.572,0.530,�k,1.7,��
2023/11/02,04:30,0.526,0.797,0.493,0.997,0.721,0.318,0.570,0.532,�k,1.2,��
2023/11/02,04:40,0.526,0.795,0.494,0.998,0.721,0.319,0.572,0.532,-,CALM,��
2023/11/02,04:50,0.527,0.796,0.493,0.996,0.723,0.319,0.569,0.531,��,0.6,��
2023/11/02,05:00,0.526,0.795,0.494,0.998,0.723,0.318,0.572,0.532,��,1.5,��
2023/11/02,05:10,0.524,0.795,0.495,0.997,0.721,0.319,0.570,0.531,���쐼,1.7,��
2023/11/02,05:20,0.525,0.794,0.494,0.997,0.721,0.319,0.572,0.533,�쐼,2.5,��
2023/11/02,05:30,0.524,0.794,0.493,0.998,0.720,0.318,0.572,0.531,�쐼,2.6,��
2023/11/02,05:40,0.524,0.796,0.493,0.996,0.720,0.318,0.572,0.533,�쐼,2.6,��
2023/11/02,05:50,0.525,0.795,0.492,0.995,0.720,0.318,0.571,0.531,���쐼,2.2,��
2023/11/02,06:00,0.524,0.793,0.493,0.997,0.720,0.317,0.571,0.531,�쐼,2.9,��
2023/11/02,06:10,0.523,0.794,0.493,0.995,0.721,0.318,0.571,0.532,��쐼,3.5,��
2023/11/02,06:20,0.524,0.795,0.493,0.998,0.719,0.318,0.571,0.532,�쐼,3.4,��
2023/11/02,06:30,0.526,0.794,0.493,0.997,0.720,0.318,0.572,0.531,�쐼,2.9,��
2023/11/02,06:40,0.525,0.794,0.492,0.997,0.722,0.318,0.571,0.530,�쐼,3.0,��
2023/11/02,06:50,0.526,0.796,0.493,0.999,0.720,0.318,0.572,0.531,�쐼,3.6,��
2023/11/02,07:00,0.525,0.793,0.494,0.996,0.720,0.318,0.573,0.532,�쐼,3.9,��
2023/11/02,07:10,0.525,0.797,0.493,0.997,0.720,0.318,0.571,0.531,�쐼,5.4,��
2023/11/02,07:20,0.523,0.796,0.493,0.996,0.720,0.318,0.572,0.532,�쐼,5.9,��
2023/11/02,07:30,0.524,0.795,0.493,0.999,0.719,0.318,0.572,0.532,���쐼,6.6,��
2023/11/02,07:40,0.526,0.796,0.494,0.997,0.719,0.318,0.573,0.532,���쐼,6.8,��
2023/11/02,07:50,0.524,0.795,0.493,0.997,0.721,0.319,0.572,0.533,��,4.6,��
2023/11/02,08:00,0.525,0.796,0.495,0.997,0.719,0.318,0.572,0.533,���쐼,3.4,��
2023/11/02,08:10,0.527,0.794,0.494,0.998,0.719,0.318,0.572,0.531,���쐼,3.4,��
2023/11/02,08:20,0.527,0.793,0.495,0.997,0.720,0.319,0.572,0.533,���쐼,3.8,��
2023/11/02,08:30,0.526,0.792,0.495,0.999,0.721,0.319,0.571,0.533,�쐼,3.5,��
2023/11/02,08:40,0.525,0.793,0.495,0.997,0.721,0.317,0.571,0.533,�쐼,4.2,��
2023/11/02,08:50,0.526,0.790,0.496,0.996,0.721,0.317,0.570,0.533,���쐼,2.0,��
2023/11/02,09:00,0.525,0.793,0.494,0.998,0.722,0.316,0.571,0.532,���쐼,2.5,��
2023/11/02,09:10,0.525,0.791,0.493,0.998,0.721,0.317,0.571,0.534,��,3.5,��
2023/11/02,09:20,0.524,0.790,0.495,1.000,0.721,0.318,0.573,0.531,��,2.2,��
2023/11/02,09:30,0.524,0.791,0.495,0.996,0.720,0.318,0.571,0.532,��,4.1,��
2023/11/02,09:40,0.523,0.791,0.495,0.998,0.717,0.317,0.571,0.531,���쐼,5.0,��
2023/11/02,09:50,0.525,0.792,0.494,0.999,0.721,0.318,0.572,0.531,���쐼,5.3,��
2023/11/02,10:00,0.523,0.791,0.492,0.998,0.720,0.317,0.573,0.531,�쐼,5.5,��
2023/11/02,10:10,0.525,0.794,0.492,0.999,0.720,0.318,0.573,0.533,���쐼,5.0,��
2023/11/02,10:20,0.524,0.792,0.493,0.998,0.720,0.317,0.572,0.531,���쐼,5.0,��
2023/11/02,10:30,0.526,0.793,0.492,1.001,0.720,0.317,0.572,0.529,���쐼,4.5,��
2023/11/02,10:40,0.525,0.795,0.495,1.000,0.720,0.319,0.571,0.529,���쐼,5.7,��
2023/11/02,10:50,0.525,0.793,0.494,1.000,0.723,0.317,0.573,0.531,��,5.0,��
2023/11/02,11:00,0.527,0.793,0.494,1.000,0.719,0.317,0.573,0.530,��,6.6,��
2023/11/02,11:10,0.525,0.794,0.494,1.001,0.720,0.317,0.573,0.529,��,5.3,��
2023/11/02,11:20,0.527,0.795,0.493,1.000,0.723,0.318,0.573,0.530,��,4.6,��
2023/11/02,11:30,0.527,0.793,0.495,1.002,0.719,0.317,0.573,0.531,��,4.5,��
2023/11/02,11:40,0.525,0.795,0.494,1.001,0.721,0.318,0.572,0.530,���k��,4.8,��
2023/11/02,11:50,0.526,0.794,0.494,1.000,0.722,0.317,0.574,0.531,��,5.1,��
2023/11/02,12:00,0.526,0.795,0.494,1.000,0.721,0.318,0.572,0.530,��,4.4,��
2023/11/02,12:10,0.527,0.795,0.494,0.998,0.722,0.317,0.570,0.532,���k��,4.3,��
2023/11/02,12:20,0.525,0.796,0.495,1.001,0.722,0.318,0.572,0.530,���k��,4.1,��
2023/11/02,12:30,0.528,0.794,0.495,1.002,0.723,0.317,0.572,0.531,���k��,3.3,��
2023/11/02,12:40,0.527,0.796,0.495,1.001,0.720,0.318,0.572,0.532,��,3.7,��
2023/11/02,12:50,0.527,0.794,0.495,1.001,0.723,0.318,0.572,0.531,��,3.6,��
2023/11/02,13:00,0.526,0.796,0.494,0.999,0.724,0.317,0.572,0.531,��,3.3,��
2023/11/02,13:10,0.527,0.796,0.494,1.000,0.725,0.318,0.572,0.531,���쐼,3.6,��
2023/11/02,13:20,0.528,0.794,0.496,1.001,0.725,0.318,0.572,0.531,��,2.3,��
2023/11/02,13:30,0.526,0.794,0.496,1.002,0.724,0.318,0.573,0.531,�쐼,2.6,��
2023/11/02,13:40,0.526,0.795,0.494,1.000,0.723,0.317,0.573,0.532,��,1.7,��
2023/11/02,13:50,0.525,0.796,0.496,1.001,0.725,0.318,0.572,0.531,�쐼,1.4,��
2023/11/02,14:00,0.527,0.796,0.495,1.001,0.726,0.318,0.573,0.531,���쐼,1.7,��
2023/11/02,14:10,0.526,0.794,0.495,1.003,0.722,0.319,0.573,0.532,���쐼,2.3,��
2023/11/02,14:20,0.525,0.795,0.495,1.001,0.723,0.318,0.571,0.532,�쐼,2.2,��
2023/11/02,14:30,0.527,0.797,0.495,1.002,0.723,0.319,0.573,0.531,�쐼,1.9,��
2023/11/02,14:40,0.526,0.796,0.495,1.001,0.723,0.318,0.572,0.533,��쐼,1.7,��
2023/11/02,14:50,0.526,0.796,0.495,1.003,0.722,0.319,0.571,0.533,�쐼,2.0,��
2023/11/02,15:00,0.527,0.795,0.493,1.004,0.724,0.319,0.571,0.532,�쐼,2.9,��
2023/11/02,15:10,0.524,0.797,0.494,1.001,0.723,0.318,0.572,0.532,���쐼,4.0,��
2023/11/02,15:20,0.526,0.796,0.494,1.000,0.723,0.316,0.573,0.531,��,4.2,��
2023/11/02,15:30,0.526,0.798,0.495,1.000,0.723,0.318,0.571,0.531,��,4.9,��
2023/11/02,15:40,0.524,0.798,0.496,0.999,0.724,0.318,0.571,0.531,��,2.6,��
2023/11/02,15:50,0.526,0.798,0.495,0.999,0.724,0.318,0.571,0.531,���k��,2.9,��
2023/11/02,16:00,0.526,0.797,0.494,0.999,0.724,0.317,0.571,0.532,���k��,4.8,��
2023/11/02,16:10,0.526,0.796,0.494,0.999,0.724,0.320,0.573,0.532,���k��,4.6,��
2023/11/02,16:20,0.525,0.797,0.494,1.001,0.724,0.320,0.572,0.533,���k��,5.0,��
2023/11/02,16:30,0.528,0.797,0.494,1.002,0.724,0.319,0.571,0.531,���k��,4.0,��
2023/11/02,16:40,0.525,0.798,0.494,1.004,0.725,0.319,0.572,0.533,��,4.5,��
2023/11/02,16:50,0.526,0.799,0.493,1.002,0.726,0.318,0.572,0.533,��,5.1,��
2023/11/02,17:00,0.526,0.799,0.497,1.003,0.726,0.318,0.572,0.535,��,5.4,��
2023/11/02,17:10,0.529,0.799,0.496,1.003,0.726,0.321,0.572,0.532,��,5.0,��
2023/11/02,17:20,0.528,0.797,0.496,1.002,0.725,0.319,0.573,0.534,��,5.5,��
2023/11/02,17:30,0.528,0.799,0.496,1.004,0.725,0.319,0.572,0.532,��,5.6,��
2023/11/02,17:40,0.528,0.798,0.496,1.004,0.726,0.319,0.574,0.534,��,6.1,��
2023/11/02,17:50,0.528,0.801,0.497,1.005,0.725,0.318,0.571,0.533,��,6.0,��
2023/11/02,18:00,0.530,0.798,0.497,1.004,0.726,0.319,0.572,0.533,��,5.9,��
2023/11/02,18:10,0.528,0.800,0.496,1.004,0.725,0.321,0.572,0.534,��,6.1,��
2023/11/02,18:20,0.528,0.799,0.497,1.003,0.726,0.320,0.572,0.533,��,6.0,��
2023/11/02,18:30,0.528,0.800,0.496,1.003,0.725,0.317,0.572,0.533,��,5.3,��
2023/11/02,18:40,0.528,0.799,0.498,1.003,0.726,0.321,0.573,0.532,��,5.8,��
2023/11/02,18:50,0.528,0.799,0.497,1.004,0.726,0.319,0.574,0.532,��,5.9,��
2023/11/02,19:00,0.528,0.799,0.496,1.005,0.726,0.319,0.573,0.535,���k��,5.7,��
2023/11/02,19:10,0.527,0.798,0.497,1.006,0.725,0.319,0.573,0.533,���k��,3.1,��
2023/11/02,19:20,0.526,0.798,0.496,1.005,0.725,0.319,0.574,0.533,���k��,3.2,��
2023/11/02,19:30,0.529,0.799,0.495,1.001,0.725,0.319,0.573,0.532,��,2.0,��
2023/11/02,19:40,0.528,0.800,0.496,1.003,0.726,0.320,0.572,0.532,��,1.7,��
2023/11/02,19:50,0.527,0.798,0.496,1.002,0.726,0.319,0.574,0.532,��,1.2,��
2023/11/02,20:00,0.528,0.800,0.495,1.004,0.724,0.319,0.573,0.532,���k��,1.2,��
2023/11/02,20:10,0.527,0.798,0.495,1.003,0.727,0.319,0.572,0.533,���k��,1.2,��
2023/11/02,20:20,0.527,0.798,0.495,1.005,0.726,0.320,0.572,0.532,�k��,2.0,��
2023/11/02,20:30,0.528,0.800,0.495,1.002,0.726,0.320,0.573,0.533,���k��,1.9,��
2023/11/02,20:40,0.528,0.800,0.497,1.004,0.727,0.319,0.570,0.532,���k��,1.4,��
2023/11/02,20:50,0.527,0.799,0.496,1.007,0.725,0.318,0.572,0.532,��,1.7,��
2023/11/02,21:00,0.528,0.799,0.497,1.003,0.724,0.319,0.572,0.534,�k��,2.3,��
2023/11/02,21:10,0.527,0.800,0.494,1.005,0.725,0.319,0.573,0.532,�k��,3.9,��
2023/11/02,21:20,0.529,0.800,0.495,1.005,0.725,0.318,0.572,0.533,���k��,2.9,��
2023/11/02,21:30,0.527,0.798,0.496,1.004,0.726,0.318,0.572,0.533,���k��,3.4,��
2023/11/02,21:40,0.528,0.797,0.495,1.005,0.727,0.319,0.573,0.532,���k��,3.8,��
2023/11/02,21:50,0.529,0.798,0.495,1.005,0.724,0.320,0.571,0.532,��,3.4,��
2023/11/02,22:00,0.527,0.797,0.494,1.003,0.724,0.320,0.571,0.532,���k��,2.5,��
2023/11/02,22:10,0.526,0.799,0.497,1.003,0.723,0.319,0.572,0.531,��,1.9,��
2023/11/02,22:20,0.527,0.798,0.495,1.005,0.723,0.321,0.573,0.533,��,2.0,��
2023/11/02,22:30,0.526,0.797,0.496,1.003,0.725,0.319,0.572,0.532,�k��,1.5,��
2023/11/02,22:40,0.527,0.797,0.495,1.003,0.725,0.319,0.573,0.531,�k��,1.5,��
2023/11/02,22:50,0.528,0.799,0.496,1.003,0.724,0.319,0.573,0.531,���k��,1.4,��
2023/11/02,23:00,0.527,0.800,0.496,1.003,0.726,0.318,0.572,0.533,���k��,1.2,��
2023/11/02,23:10,0.527,0.800,0.497,1.003,0.727,0.318,0.571,0.530,��,0.9,��
2023/11/02,23:20,0.525,0.800,0.495,1.005,0.725,0.321,0.571,0.532,��,1.5,��
2023/11/02,23:30,0.526,0.800,0.494,1.006,0.724,0.320,0.572,0.531,�쐼,2.6,��
2023/11/02,23:40,0.527,0.798,0.495,1.004,0.724,0.319,0.572,0.532,�쐼,2.9,��
2023/11/02,23:50,0.527,0.797,0.495,1.003,0.726,0.319,0.572,0.532,��,2.6,��
